Change the Weather History Date:

Wednesday, August 8, 2012

  Actual Average Record
Temperature  
Mean Temperature 74 °F 67 °F  
Max Temperature 95 °F 83 °F 96 °F (1991)
Min Temperature 52 °F 51 °F 33 °F (1896)
Degree Days  
Heating Degree Days 0 2  
Month to date heating degree days 14 11  
Since 1 June heating degree days 224 311  
Since 1 July heating degree days 24 84  
Cooling Degree Days 9 4  
Month to date cooling degree days 35 32  
Year to date cooling degree days 235 142  
Since 1 June cooling degree days 235 140  
Growing Degree Days 23 (Base 50)    
Moisture  
Dew Point 41 °F    
Average Humidity 40    
Maximum Humidity 66    
Minimum Humidity 14    
Precipitation  
Precipitation T in 0.05 in 2.99 in (2002)
Month to date precipitation 0.22 0.43  
Year to date precipitation 12.62 11.70  
Snow  
Snow 0.00 in - - ()
Snow Depth 0.00 in    
Sea Level Pressure  
Sea Level Pressure 30.02 in    
Wind  
Wind Speed 6 mph (SE)    
Max Wind Speed 20 mph    
Max Gust Speed 38 mph    
Visibility 10 miles    
Events      
T = Trace of Precipitation, MM = Missing Value Source: NWS Daily Summary

Daily Weather History Graph

Daily Weather History Graph

Search for Another Location

Airport or City:

Trip Planner

Search our weather history database for the weather conditions in past years. The results will help you decide how hot, cold, wet, or windy it might be!

Date:

Astronomy

Aug. 08, 2012 Rise Set
Actual Time 6:06 AM MDT 8:39 PM MDT
Civil Twilight 5:32 AM MDT 9:13 PM MDT
Nautical Twilight 4:48 AM MDT 9:56 PM MDT
Astronomical Twilight 3:58 AM MDT 10:46 PM MDT
Moon 11:22 PM MDT (8/8) 1:27 PM MDT (8/8)
Length of Visible Light 15h 41m
Length of Day
14h 32m
Waning Gibbous, 60% of the Moon is Illuminated
Aug 8
Waning Gibbous
Aug 9
Last Quarter
Aug 17
New
Aug 24
First Quarter
Aug 31
Full

Hourly Weather History & Observations

Time (MDT) Temp. Dew Point Humidity Pressure Visibility Wind Dir Wind Speed Gust Speed Precip Events Conditions
12:54 AM 60.1 °F 39.0 °F 46% 30.07 in 10.0 mi SE 6.9 mph - N/A   Clear
1:54 AM 57.9 °F 42.1 °F 56% 30.07 in 10.0 mi ESE 5.8 mph - N/A   Clear
2:54 AM 57.9 °F 43.0 °F 58% 30.07 in 10.0 mi SSE 8.1 mph - N/A   Clear
3:54 AM 55.9 °F 42.1 °F 60% 30.08 in 10.0 mi South 3.5 mph - N/A   Clear
4:54 AM 54.0 °F 41.0 °F 62% 30.08 in 10.0 mi SE 9.2 mph - N/A   Clear
5:54 AM 53.1 °F 42.1 °F 66% 30.09 in 10.0 mi ESE 5.8 mph - N/A   Clear
6:54 AM 57.0 °F 42.1 °F 57% 30.09 in 10.0 mi Variable 4.6 mph - N/A   Clear
7:54 AM 63.0 °F 44.1 °F 50% 30.08 in 10.0 mi SE 5.8 mph - N/A   Clear
8:54 AM 72.0 °F 48.0 °F 43% 30.07 in 10.0 mi ESE 5.8 mph - N/A   Clear
1:54 PM 91.9 °F 39.9 °F 16% 29.98 in 10.0 mi Variable 5.8 mph - N/A   Unknown
2:54 PM 93.9 °F 37.0 °F 14% 29.97 in 10.0 mi Calm Calm - N/A   Clear
3:54 PM 93.9 °F 37.0 °F 14% 29.95 in 10.0 mi North 3.5 mph - N/A   Clear
4:54 PM 93.9 °F 41.0 °F 16% 29.93 in 10.0 mi ESE 13.8 mph 19.6 mph N/A   Clear
5:54 PM 91.0 °F 41.0 °F 17% 29.93 in 10.0 mi ESE 12.7 mph - N/A   Clear
6:54 PM 87.1 °F 39.0 °F 18% 29.94 in 10.0 mi ESE 10.4 mph - N/A   Clear
7:54 PM 86.0 °F 39.0 °F 19% 29.99 in 10.0 mi NW 13.8 mph 21.9 mph N/A   Clear
8:54 PM 82.9 °F 41.0 °F 23% 30.01 in 10.0 mi NW 4.6 mph - 0.00 in   Scattered Clouds
9:54 PM 77.0 °F 42.1 °F 29% 30.04 in 10.0 mi SW 6.9 mph - N/A   Clear
10:54 PM 81.0 °F 39.9 °F 23% 30.03 in 10.0 mi Variable 3.5 mph - 0.00 in   Clear
11:54 PM 82.9 °F 41.0 °F 23% 30.02 in 10.0 mi NW 12.7 mph 26.5 mph N/A   Mostly Cloudy